Location: Lake Almanor
(40.2485°N, 121.1442°W)
Time: 01:22:59
(UTC-08:00)

STARLINK-1096 - Pass Details

Date: 30 January 2020
Orbit: 344 x 355 km, 53.0° (Epoch: 22 February)

Event Time Altitude Azimuth Distance (km) Brightness Sun altitude
Rises 19:16:25 0° 308° (NW) 2,189 7.4 -22.3°
Reaches altitude 10° 19:18:27 10° 307° (NW) 1,340 6.2 -22.6°
Enters shadow 19:20:01 28° 304° (NW) 715 4.7 -22.9°
